FW3687 Weather Reports


Display with metric or nautical units.
time (UTC)temp
F
wind
direction
speed
MPH
gust
MPH
rain 1hr
in
rain 24hr
in
rain mn
in
humidity
%
barometer
mb
20200402190549 72 175 10.0 17.0 0.00 0.00 0.00 44 1013.7
20200402190050 72 154 10.0 17.0 0.00 0.00 0.00 44 1013.7
20200402185549 72 146 19.0 22.0 0.00 0.00 0.00 44 1013.7
20200402185049 73 153 9.0 24.0 0.00 0.00 0.00 44 1013.7
20200402184550 73 151 10.0 18.0 0.00 0.00 0.00 44 1013.5
20200402184049 73 226 8.0 19.0 0.00 0.00 0.00 44 1013.6
20200402183549 72 142 15.0 24.0 0.00 0.00 0.00 43 1013.6
20200402183049 72 153 12.0 24.0 0.00 0.00 0.00 43 1013.7
20200402182549 72 166 10.0 29.0 0.00 0.00 0.00 41 1013.8
20200402182050 72 143 12.0 29.0 0.00 0.00 0.00 41 1013.7
20200402181549 72 166 11.0 21.0 0.00 0.00 0.00 40 1013.8
20200402181050 72 186 14.0 22.0 0.00 0.00 0.00 39 1013.8
20200402180549 72 221 10.0 26.0 0.00 0.00 0.00 37 1013.8
20200402180050 71 173 10.0 26.0 0.00 0.00 0.00 37 1013.7
20200402175554 71 200 17.0 22.0 0.00 0.00 0.00 36 1013.8
20200402175049 72 164 11.0 22.0 0.00 0.00 0.00 34 1013.9
20200402174550 72 217 6.0 25.0 0.00 0.00 0.00 34 1013.8
20200402174049 72 236 10.0 20.0 0.00 0.00 0.00 33 1013.7
20200402173549 72 161 11.0 21.0 0.00 0.00 0.00 31 1013.7
20200402173050 72 153 18.0 26.0 0.00 0.00 0.00 32 1013.8
20200402172549 72 151 12.0 26.0 0.00 0.00 0.00 34 1013.7
20200402172049 71 202 6.0 25.0 0.00 0.00 0.00 37 1013.7
20200402171550 70 142 21.0 24.0 0.00 0.00 0.00 37 1013.9
20200402171049 71 158 18.0 25.0 0.00 0.00 0.00 37 1013.9
20200402170549 70 152 14.0 25.0 0.00 0.00 0.00 39 1013.9
20200402170052 70 147 9.0 25.0 0.00 0.00 0.00 39 1013.9
20200402165549 69 174 11.0 22.0 0.00 0.00 0.00 40 1014.1
20200402165050 69 244 11.0 31.0 0.00 0.00 0.00 40 1014.3
20200402164550 68 163 10.0 31.0 0.00 0.00 0.00 41 1014.4
20200402164050 68 148 6.0 25.0 0.00 0.00 0.00 41 1014.5
20200402163550 68 175 23.0 24.0 0.00 0.00 0.00 41 1014.3
20200402163050 68 180 10.0 23.0 0.00 0.00 0.00 42 1014.3
20200402162549 67 182 18.0 25.0 0.00 0.00 0.00 43 1014.4
20200402162049 66 190 12.0 36.0 0.00 0.00 0.00 43 1014.3
20200402161550 66 158 36.0 36.0 0.00 0.00 0.00 43 1014.3
20200402161050 66 205 10.0 29.0 0.00 0.00 0.00 42 1014.2
20200402160550 66 184 20.0 24.0 0.00 0.00 0.00 43 1014.2
20200402160050 66 173 23.0 24.0 0.00 0.00 0.00 45 1014.3
20200402155550 66 150 16.0 24.0 0.00 0.00 0.00 44 1014.7
20200402155049 66 170 7.0 24.0 0.00 0.00 0.00 45 1015.0
20200402154550 66 198 4.0 21.0 0.00 0.00 0.00 44 1015.1
20200402154049 66 162 11.0 21.0 0.00 0.00 0.00 45 1015.0
20200402153549 66 205 5.0 21.0 0.00 0.00 0.00 45 1015.1
20200402153050 66 209 8.0 18.0 0.00 0.00 0.00 45 1015.2
20200402152549 65 204 5.0 23.0 0.00 0.00 0.00 47 1015.1
20200402152049 65 150 10.0 23.0 0.00 0.00 0.00 47 1015.0
20200402151550 64 140 5.0 27.0 0.00 0.00 0.00 48 1015.0
20200402151051 64 182 15.0 27.0 0.00 0.00 0.00 46 1015.1
20200402150549 64 278 17.0 24.0 0.00 0.00 0.00 48 1015.1
20200402150049 64 171 4.0 19.0 0.00 0.00 0.00 49 1015.1
20200402145549 64 163 8.0 29.0 0.00 0.00 0.00 50 1015.1
20200402145048 63 144 17.0 28.0 0.00 0.00 0.00 50 1015.1
20200402144549 63 188 8.0 24.0 0.00 0.00 0.00 50 1015.0
20200402144048 63 172 6.0 23.0 0.00 0.00 0.00 50 1015.0
20200402143549 63 123 20.0 23.0 0.00 0.00 0.00 50 1015.0
20200402143049 63 160 8.0 21.0 0.00 0.00 0.00 51 1015.0
20200402142548 62 159 12.0 20.0 0.00 0.00 0.00 52 1015.0
20200402142049 62 182 14.0 17.0 0.00 0.00 0.00 52 1014.8
20200402141549 62 169 16.0 20.0 0.00 0.00 0.00 53 1014.8
20200402141049 61 180 8.0 20.0 0.00 0.00 0.00 53 1014.9
20200402140549 61 190 15.0 16.0 0.00 0.00 0.00 54 1015.0
20200402140049 61 144 5.0 17.0 0.00 0.00 0.00 54 1015.0
20200402135549 61 173 9.0 17.0 0.00 0.00 0.00 55 1015.0
20200402135051 61 167 10.0 16.0 0.00 0.00 0.00 54 1015.2
20200402134549 60 152 10.0 18.0 0.00 0.00 0.00 54 1015.1
20200402134049 60 138 7.0 15.0 0.00 0.00 0.00 55 1015.3
20200402133549 60 157 17.0 20.0 0.00 0.00 0.00 55 1015.2
20200402133049 60 146 8.0 20.0 0.00 0.00 0.00 55 1015.1
20200402132549 60 194 6.0 20.0 0.00 0.00 0.00 55 1015.1
20200402132049 60 130 5.0 19.0 0.00 0.00 0.00 55 1015.0
20200402131549 60 142 10.0 18.0 0.00 0.00 0.00 55 1015.1
20200402131048 59 159 15.0 18.0 0.00 0.00 0.00 56 1015.1
20200402130550 59 144 8.0 15.0 0.00 0.00 0.00 56 1015.2
20200402130049 59 166 6.0 15.0 0.00 0.00 0.00 56 1015.2
20200402125549 59 169 10.0 14.0 0.00 0.00 0.00 55 1015.1
20200402125048 59 165 12.0 19.0 0.00 0.00 0.00 55 1015.0
20200402124549 59 156 10.0 19.0 0.00 0.00 0.00 56 1014.9
20200402124048 59 184 6.0 15.0 0.00 0.00 0.00 56 1014.9
20200402123549 59 167 8.0 17.0 0.00 0.00 0.00 56 1014.9
20200402123049 59 202 6.0 15.0 0.00 0.00 0.00 57 1014.8
20200402122548 59 125 7.0 14.0 0.00 0.00 0.00 57 1014.9
20200402122101 59 135 8.0 14.0 0.00 0.00 0.00 57 1015.0
20200402121549 59 201 7.0 13.0 0.00 0.00 0.00 57 1015.1
20200402121049 59 140 11.0 15.0 0.00 0.00 0.00 56 1015.2
20200402120549 59 213 6.0 15.0 0.00 0.00 0.00 56 1014.8
20200402120049 59 148 5.0 12.0 0.00 0.00 0.00 56 1014.6
20200402115548 59 134 7.0 12.0 0.00 0.00 0.00 56 1014.9
20200402115049 59 132 10.0 13.0 0.00 0.00 0.00 55 1014.8
20200402114549 59 140 5.0 13.0 0.00 0.00 0.00 56 1014.7
20200402114049 59 146 4.0 13.0 0.00 0.00 0.00 56 1014.7
20200402113548 59 155 6.0 12.0 0.00 0.00 0.00 55 1014.9
20200402113049 59 160 10.0 14.0 0.00 0.00 0.00 55 1015.0
20200402112549 59 163 6.0 14.0 0.00 0.00 0.00 56 1014.7
20200402112048 59 137 4.0 17.0 0.00 0.00 0.00 56 1014.7
20200402111549 59 162 12.0 17.0 0.00 0.00 0.00 56 1014.7
20200402111048 59 140 8.0 15.0 0.00 0.00 0.00 57 1014.7
20200402110548 58 149 8.0 15.0 0.00 0.00 0.00 58 1014.5
20200402110049 58 142 4.0 13.0 0.00 0.00 0.00 58 1014.3
20200402105550 58 173 8.0 14.0 0.00 0.00 0.00 59 1014.5
20200402105048 58 203 8.0 11.0 0.00 0.00 0.00 59 1014.4
20200402104549 58 140 9.0 12.0 0.00 0.00 0.00 59 1014.4
20200402104048 58 135 4.0 9.0 0.00 0.00 0.00 59 1014.5
20200402103549 58 157 6.0 12.0 0.00 0.00 0.00 59 1014.6
20200402103049 58 157 5.0 12.0 0.00 0.00 0.00 59 1014.6
20200402102548 58 134 4.0 9.0 0.00 0.00 0.00 59 1014.6
20200402102049 58 170 8.0 8.0 0.00 0.00 0.00 59 1014.7
20200402101549 58 167 8.0 8.0 0.00 0.00 0.00 59 1014.6
20200402101050 58 169 6.0 9.0 0.00 0.00 0.00 59 1014.7
20200402100548 58 128 4.0 10.0 0.00 0.00 0.00 59 1014.6
20200402100049 58 159 7.0 9.0 0.00 0.00 0.00 59 1014.6
20200402095549 58 179 3.0 10.0 0.00 0.00 0.00 59 1014.6
20200402095049 58 116 6.0 10.0 0.00 0.00 0.00 58 1014.5
20200402094549 58 150 3.0 8.0 0.00 0.00 0.00 58 1014.5
20200402094051 58 173 2.0 9.0 0.00 0.00 0.00 58 1014.5
20200402093549 59 207 3.0 9.0 0.00 0.00 0.00 58 1014.5
20200402093049 59 190 3.0 9.0 0.00 0.00 0.00 58 1014.5
20200402092551 59 181 2.0 9.0 0.00 0.00 0.00 57 1014.4
20200402091048 59 130 9.0 10.0 0.00 0.00 0.00 57 1014.4
20200402090549 59 171 8.0 11.0 0.00 0.00 0.00 56 1014.4
20200402090049 59 142 3.0 11.0 0.00 0.00 0.00 56 1014.4
20200402085548 59 178 3.0 12.0 0.00 0.00 0.00 56 1014.4
20200402085048 59 171 6.0 12.0 0.00 0.00 0.00 56 1014.4
20200402084549 60 140 7.0 11.0 0.00 0.00 0.00 56 1014.5
20200402084049 60 142 4.0 12.0 0.00 0.00 0.00 56 1014.5
20200402083549 60 171 7.0 10.0 0.00 0.00 0.00 55 1014.4
20200402083049 60 146 5.0 10.0 0.00 0.00 0.00 55 1014.4
20200402082549 60 138 4.0 12.0 0.00 0.00 0.00 55 1014.5
20200402082049 60 184 4.0 12.0 0.00 0.00 0.00 55 1014.7
20200402081551 60 145 6.0 10.0 0.00 0.00 0.00 55 1014.6
20200402081049 60 152 3.0 10.0 0.00 0.00 0.00 55 1014.6
20200402080549 60 153 2.0 10.0 0.00 0.00 0.00 55 1014.7
20200402080050 60 191 6.0 16.0 0.00 0.00 0.00 56 1014.7
20200402075549 60 161 8.0 15.0 0.00 0.00 0.00 56 1014.7
20200402075048 60 178 4.0 11.0 0.00 0.00 0.00 56 1014.8
20200402074549 60 182 4.0 7.0 0.00 0.00 0.00 56 1015.0
20200402074049 60 155 3.0 9.0 0.00 0.00 0.00 56 1015.1
20200402073549 60 163 8.0 10.0 0.00 0.00 0.00 56 1015.2
20200402073049 60 157 1.0 8.0 0.00 0.00 0.00 56 1015.2
20200402072548 60 166 6.0 9.0 0.00 0.00 0.00 56 1015.4
20200402072048 60 189 3.0 9.0 0.00 0.00 0.00 56 1015.3
20200402071549 60 158 9.0 9.0 0.00 0.00 0.00 56 1015.2
20200402071048 60 153 4.0 9.0 0.00 0.00 0.00 56 1015.3
20200402070548 60 148 3.0 9.0 0.00 0.00 0.00 55 1015.4
20200402070049 60 169 4.0 7.0 0.00 0.00 0.00 55 1015.4
20200402065548 60 167 4.0 7.0 0.00 0.00 0.00 55 1015.4
20200402065048 60 157 7.0 8.0 0.00 0.00 0.00 55 1015.5
20200402064852 60 176 1.0 7.0 0.00 0.00 0.00 55 1015.5
20200402064048 60 140 3.0 8.0 0.00 0.00 0.00 55 1015.4
20200402063548 60 201 7.0 10.0 0.00 0.00 0.00 55 1015.4
20200402063049 61 148 4.0 14.0 0.00 0.00 0.00 55 1015.5
20200402062548 61 175 4.0 14.0 0.00 0.00 0.00 55 1015.6
20200402062048 61 150 4.0 11.0 0.00 0.00 0.00 55 1015.7
20200402061603 61 159 2.0 8.0 0.00 0.00 0.00 55 1015.7
20200402061048 61 159 4.0 9.0 0.00 0.00 0.00 54 1015.8
20200402060548 61 159 5.0 9.0 0.00 0.00 0.00 54 1015.8
20200402060049 61 161 4.0 8.0 0.00 0.00 0.00 54 1015.7
20200402055549 61 166 7.0 9.0 0.00 0.00 0.00 53 1015.8
20200402055104 61 132 4.0 9.0 0.00 0.00 0.00 53 1015.8
20200402054549 61 171 4.0 8.0 0.00 0.00 0.00 53 1015.7
20200402054048 61 172 5.0 10.0 0.00 0.00 0.00 53 1015.8
20200402053549 61 160 6.0 10.0 0.00 0.00 0.00 53 1015.8
20200402053049 62 184 3.0 9.0 0.00 0.00 0.00 53 1015.8
20200402052548 62 214 4.0 9.0 0.00 0.00 0.00 52 1015.8
20200402052048 62 175 2.0 8.0 0.00 0.00 0.00 52 1015.8
20200402051550 62 144 4.0 10.0 0.00 0.00 0.00 52 1015.8
20200402051049 62 148 5.0 10.0 0.00 0.00 0.00 51 1015.8
20200402050548 62 153 3.0 9.0 0.00 0.00 0.00 52 1015.8
20200402050049 62 172 5.0 10.0 0.00 0.00 0.00 51 1015.8
20200402045549 62 157 3.0 10.0 0.00 0.00 0.00 51 1015.8
20200402045049 62 198 6.0 10.0 0.00 0.00 0.00 51 1015.7
20200402044549 62 148 3.0 9.0 0.00 0.00 0.00 51 1015.8
20200402044049 62 192 3.0 9.0 0.00 0.00 0.00 50 1015.8
20200402043549 62 153 4.0 12.0 0.00 0.00 0.00 50 1015.8
20200402043050 63 157 9.0 11.0 0.00 0.00 0.00 50 1015.5
20200402042549 63 175 6.0 10.0 0.00 0.00 0.00 49 1015.5
20200402042049 63 169 7.0 10.0 0.00 0.00 0.00 49 1015.6
20200402041550 63 146 6.0 9.0 0.00 0.00 0.00 49 1015.6
20200402041048 63 157 3.0 11.0 0.00 0.00 0.00 49 1015.5
20200402040549 63 175 7.0 11.0 0.00 0.00 0.00 48 1015.5
20200402040049 63 148 3.0 8.0 0.00 0.00 0.00 48 1015.5
20200402035549 63 152 3.0 11.0 0.00 0.00 0.00 48 1015.6
20200402035049 63 165 4.0 11.0 0.00 0.00 0.00 48 1015.5
20200402034549 64 164 4.0 11.0 0.00 0.00 0.00 48 1015.5
20200402034049 64 207 4.0 13.0 0.00 0.00 0.00 48 1015.4
20200402033548 63 141 7.0 9.0 0.00 0.00 0.00 48 1015.4
20200402033049 64 161 7.0 11.0 0.00 0.00 0.00 48 1015.4
20200402032548 64 165 2.0 12.0 0.00 0.00 0.00 48 1015.3
20200402032049 64 229 7.0 9.0 0.00 0.00 0.00 48 1015.3
20200402031549 64 164 9.0 9.0 0.00 0.00 0.00 48 1015.3
20200402031048 64 157 5.0 15.0 0.00 0.00 0.00 47 1015.2
20200402030549 64 165 1.0 15.0 0.00 0.00 0.00 47 1015.1
20200402030049 64 179 4.0 12.0 0.00 0.00 0.00 47 1015.1
20200402025550 64 180 3.0 12.0 0.00 0.00 0.00 47 1015.0
20200402025048 64 144 5.0 14.0 0.00 0.00 0.00 47 1015.2
20200402024550 64 160 8.0 14.0 0.00 0.00 0.00 47 1015.1
20200402024049 64 168 9.0 17.0 0.00 0.00 0.00 47 1015.0
20200402023549 64 140 4.0 17.0 0.00 0.00 0.00 47 1014.9
20200402023050 65 190 4.0 13.0 0.00 0.00 0.00 47 1015.0
20200402022549 65 144 5.0 13.0 0.00 0.00 0.00 47 1014.9
20200402022049 65 166 7.0 12.0 0.00 0.00 0.00 47 1014.9
20200402021550 65 153 7.0 15.0 0.00 0.00 0.00 47 1014.9
20200402021048 65 163 11.0 14.0 0.00 0.00 0.00 47 1014.9
20200402020530 65 186 3.0 16.0 0.00 0.00 0.00 46 1014.7
20200402020031 65 244 11.0 16.0 0.00 0.00 0.00 46 1014.5
20200402015530 65 186 6.0 12.0 0.00 0.00 0.00 46 1014.4
20200402015030 65 147 4.0 12.0 0.00 0.00 0.00 46 1014.5
20200402014532 65 171 8.0 17.0 0.00 0.00 0.00 46 1014.4
20200402014030 66 186 10.0 13.0 0.00 0.00 0.00 45 1014.3
20200402013530 66 151 3.0 12.0 0.00 0.00 0.00 45 1014.4
20200402013031 66 131 9.0 12.0 0.00 0.00 0.00 44 1014.5
20200402012530 66 159 5.0 9.0 0.00 0.00 0.00 44 1014.6
20200402012030 66 138 7.0 11.0 0.00 0.00 0.00 44 1014.5
20200402011531 66 217 7.0 11.0 0.00 0.00 0.00 43 1014.4
20200402011030 66 194 5.0 10.0 0.00 0.00 0.00 43 1014.4
20200402010530 66 182 4.0 14.0 0.00 0.00 0.00 43 1014.5
20200402010031 66 150 9.0 14.0 0.00 0.00 0.00 42 1014.4
20200402005531 66 204 3.0 11.0 0.00 0.00 0.00 42 1014.3
20200402005030 67 183 3.0 15.0 0.00 0.00 0.00 42 1014.3
20200402004530 67 156 1.0 15.0 0.00 0.00 0.00 41 1014.3
20200402004031 67 213 4.0 10.0 0.00 0.00 0.00 41 1014.3
20200402003531 67 201 4.0 13.0 0.00 0.00 0.00 40 1014.3
20200402003031 67 159 5.0 15.0 0.00 0.00 0.00 40 1014.3
20200402002530 67 190 5.0 15.0 0.00 0.00 0.00 40 1014.4
20200402002030 67 183 6.0 10.0 0.00 0.00 0.00 40 1014.3
20200402001531 68 187 5.0 13.0 0.00 0.00 0.00 40 1014.4
20200402001030 68 174 6.0 15.0 0.00 0.00 0.00 40 1014.3
20200402000530 68 161 5.0 15.0 0.00 0.00 0.00 40 1014.3
20200402000237 68 231 6.0 13.0 0.00 0.00 0.00 41 1014.5
20200401235530 68 136 7.0 13.0 0.00 0.00 0.00 41 1014.4
20200401235031 68 187 5.0 10.0 0.00 0.00 0.00 41 1014.5
20200401234531 68 153 4.0 14.0 0.00 0.00 0.00 41 1014.5
20200401234030 68 211 5.0 14.0 0.00 0.00 0.00 40 1014.4
20200401233530 68 200 7.0 12.0 0.00 0.00 0.00 40 1014.4
20200401233031 69 163 7.0 11.0 0.00 0.00 0.00 39 1014.3
20200401232530 69 148 5.0 13.0 0.00 0.00 0.00 39 1014.3
20200401232030 69 163 5.0 13.0 0.00 0.00 0.00 39 1014.3
20200401231530 69 147 5.0 12.0 0.00 0.00 0.00 39 1014.4
20200401231030 69 198 9.0 14.0 0.00 0.00 0.00 38 1014.3
20200401230531 69 157 5.0 14.0 0.00 0.00 0.00 38 1014.2
20200401225530 69 157 5.0 19.0 0.00 0.00 0.00 38 1014.2
20200401225031 69 148 6.0 19.0 0.00 0.00 0.00 37 1014.2
20200401224532 69 156 10.0 16.0 0.00 0.00 0.00 38 1014.3
20200401224030 69 157 7.0 16.0 0.00 0.00 0.00 37 1014.4
20200401223530 69 203 3.0 14.0 0.00 0.00 0.00 37 1014.4
20200401223030 69 121 7.0 14.0 0.00 0.00 0.00 37 1014.4
20200401222530 69 170 11.0 18.0 0.00 0.00 0.00 36 1014.5
20200401222030 69 145 8.0 18.0 0.00 0.00 0.00 36 1014.4
20200401221532 69 196 10.0 18.0 0.00 0.00 0.00 35 1014.5
20200401221030 70 142 8.0 18.0 0.00 0.00 0.00 35 1014.5
20200401220530 70 161 5.0 17.0 0.00 0.00 0.00 36 1014.6
20200401220031 70 175 18.0 18.0 0.00 0.00 0.00 36 1014.6
20200401215530 69 140 10.0 18.0 0.00 0.00 0.00 36 1014.7
20200401215031 69 169 9.0 12.0 0.00 0.00 0.00 38 1014.6
20200401214530 69 157 9.0 16.0 0.00 0.00 0.00 37 1014.7
20200401214030 69 160 9.0 14.0 0.00 0.00 0.00 37 1014.7
20200401213531 69 142 8.0 14.0 0.00 0.00 0.00 38 1014.7
20200401213030 69 155 8.0 12.0 0.00 0.00 0.00 39 1014.9
20200401212530 69 226 4.0 16.0 0.00 0.00 0.00 39 1014.9
20200401212030 69 173 14.0 19.0 0.00 0.00 0.00 37 1015.2
20200401211530 70 181 10.0 17.0 0.00 0.00 0.00 38 1015.3
20200401211030 69 209 9.0 16.0 0.00 0.00 0.00 38 1015.6
20200401210530 69 163 8.0 16.0 0.00 0.00 0.00 38 1015.7
20200401210031 68 142 5.0 16.0 0.00 0.00 0.00 39 1015.6
20200401205530 68 156 7.0 15.0 0.00 0.00 0.00 39 1015.8
20200401205030 68 184 6.0 16.0 0.00 0.00 0.00 39 1015.8
20200401204531 68 181 7.0 14.0 0.00 0.00 0.00 39 1015.8
20200401204030 68 168 9.0 12.0 0.00 0.00 0.00 39 1015.8
20200401203530 68 180 7.0 13.0 0.00 0.00 0.00 40 1015.8
20200401203030 68 167 8.0 11.0 0.00 0.00 0.00 40 1015.8
20200401202530 68 174 5.0 14.0 0.00 0.00 0.00 40 1015.8
20200401202030 68 178 9.0 14.0 0.00 0.00 0.00 40 1015.8
20200401201531 68 132 8.0 14.0 0.00 0.00 0.00 39 1016.0
20200401201030 68 177 7.0 12.0 0.00 0.00 0.00 38 1016.2
20200401200530 69 214 3.0 12.0 0.00 0.00 0.00 37 1016.4
20200401200038 69 147 8.0 17.0 0.00 0.00 0.00 37 1016.4
20200401195530 69 166 12.0 17.0 0.00 0.01 0.00 36 1016.5
20200401195031 69 163 7.0 15.0 0.00 0.01 0.00 35 1016.6
20200401194532 69 206 4.0 15.0 0.00 0.01 0.00 36 1016.7
20200401194030 69 166 7.0 20.0 0.00 0.01 0.00 36 1016.8
20200401193530 69 158 6.0 20.0 0.00 0.01 0.00 36 1017.0
20200401193036 69 152 8.0 14.0 0.00 0.01 0.00 36 1016.9
20200401192530 69 144 9.0 13.0 0.00 0.01 0.00 35 1017.0
20200401192030 69 171 5.0 13.0 0.00 0.01 0.00 36 1017.1
20200401191532 68 181 6.0 14.0 0.00 0.01 0.00 36 1017.1
20200401191030 68 138 5.0 16.0 0.00 0.01 0.00 35 1017.2